Omaha, IA

9:58 PM CST on December 15, 2017 (GMT -0600)
Eppley Airfield

Weather History for KOMA - October, 2013

Change the Weather History Date:

Friday, October 18, 2013

  Actual Average Record
Temperature  
Mean Temperature 43 °F 52 °F  
Max Temperature 52 °F 64 °F 86 °F (1950)
Min Temperature 34 °F 41 °F 20 °F (1972)
Degree Days  
Heating Degree Days 22 13  
Month to date heating degree days 139 180  
Since 1 July heating degree days 161 283  
Cooling Degree Days 0 0  
Month to date cooling degree days 21 12  
Year to date cooling degree days 1294 1109  
Moisture  
Dew Point 31 °F    
Average Humidity 62    
Maximum Humidity 85    
Minimum Humidity 39    
Precipitation  
Precipitation 0.00 in 0.07 in 1.10 in (1877)
Month to date precipitation 3.47 1.31  
Year to date precipitation 27.43 27.10  
Snow  
Snow 0.00 in 0.00 in - ()
Month to date snowfall 0.0 0.1  
Since 1 July snowfall 0.0 0.1  
Snow Depth 0.00 in    
Sea Level Pressure  
Sea Level Pressure 30.08 in    
Wind  
Wind Speed 5 mph (WNW)    
Max Wind Speed 14 mph    
Max Gust Speed 18 mph    
Visibility 10 miles    
Events      
T = Trace of Precipitation, MM = Missing Value Source: NWS Daily Summary

Daily Weather History Graph

Daily Weather History Graph

Search for Another Location

Airport or City:

Trip Planner

Search our weather history database for the weather conditions in past years. The results will help you decide how hot, cold, wet, or windy it might be!

Date:

Astronomy

Oct. 18, 2013 Rise Set
Actual Time 7:38 AM CDT 6:37 PM CDT
Civil Twilight 7:11 AM CDT 7:05 PM CDT
Nautical Twilight 6:38 AM CDT 7:37 PM CDT
Astronomical Twilight 6:06 AM CDT 8:09 PM CDT
Moon 6:27 PM CDT (10/18) 7:15 AM CDT (10/18)
Length of Visible Light 11h 54m
Length of Day
10h 58m
Full, 100% of the Moon is Illuminated
Oct 18
Full
Oct 18
Full
Oct 26
Last Quarter
Nov 3
New
Nov 9
First Quarter

Hourly Weather History & Observations

Time (CDT) Temp. Windchill Dew Point Humidity Pressure Visibility Wind Dir Wind Speed Gust Speed Precip Events Conditions
12:52 AM 44.1 °F 39.0 °F 37.0 °F 76% 30.05 in 10.0 mi NW 9.2 mph - N/A   Overcast
1:52 AM 41.0 °F 35.8 °F 35.1 °F 79% 30.06 in 10.0 mi NW 8.1 mph - N/A   Partly Cloudy
2:52 AM 39.9 °F 34.5 °F 35.1 °F 83% 30.08 in 10.0 mi WNW 8.1 mph - N/A   Partly Cloudy
3:52 AM 39.9 °F 33.4 °F 34.0 °F 79% 30.07 in 10.0 mi WNW 10.4 mph - N/A   Partly Cloudy
4:52 AM 37.9 °F 31.5 °F 33.1 °F 83% 30.08 in 10.0 mi NW 9.2 mph - N/A   Scattered Clouds
5:52 AM 36.0 °F 30.3 °F 30.9 °F 82% 30.11 in 10.0 mi NNW 6.9 mph - N/A   Partly Cloudy
6:52 AM 36.0 °F 33.3 °F 30.9 °F 82% 30.11 in 10.0 mi WNW 3.5 mph - N/A   Scattered Clouds
7:52 AM 36.0 °F - 30.9 °F 82% 30.13 in 10.0 mi Calm Calm - N/A   Scattered Clouds
8:52 AM 37.0 °F 32.4 °F 32.0 °F 82% 30.14 in 10.0 mi NW 5.8 mph - N/A   Mostly Cloudy
9:52 AM 39.9 °F 36.7 °F 33.1 °F 77% 30.15 in 10.0 mi NW 4.6 mph - N/A   Mostly Cloudy
10:52 AM 43.0 °F - 33.1 °F 68% 30.16 in 10.0 mi Calm Calm - N/A   Mostly Cloudy
11:52 AM 46.0 °F 44.8 °F 32.0 °F 58% 30.14 in 10.0 mi WNW 3.5 mph - N/A   Mostly Cloudy
12:52 PM 48.0 °F - 32.0 °F 54% 30.13 in 10.0 mi West 3.5 mph - N/A   Mostly Cloudy
1:52 PM 50.0 °F - 30.0 °F 46% 30.10 in 10.0 mi NNW 6.9 mph - N/A   Mostly Cloudy
2:52 PM 52.0 °F - 28.9 °F 41% 30.07 in 10.0 mi WNW 10.4 mph - N/A   Mostly Cloudy
3:52 PM 50.0 °F - 28.0 °F 43% 30.07 in 10.0 mi WNW 6.9 mph - N/A   Mostly Cloudy
4:52 PM 51.1 °F - 28.0 °F 41% 30.06 in 10.0 mi Variable 6.9 mph - N/A   Mostly Cloudy
5:52 PM 50.0 °F - 27.0 °F 41% 30.06 in 10.0 mi WSW 6.9 mph - N/A   Mostly Cloudy
6:52 PM 48.0 °F - 28.0 °F 46% 30.04 in 10.0 mi SW 4.6 mph - N/A   Scattered Clouds
7:52 PM 46.9 °F - 28.9 °F 50% 30.05 in 10.0 mi SSW 3.5 mph - N/A   Scattered Clouds
8:52 PM 46.0 °F 42.5 °F 28.0 °F 50% 30.04 in 10.0 mi SW 6.9 mph - N/A   Partly Cloudy
9:52 PM 45.0 °F 41.2 °F 28.0 °F 52% 30.04 in 10.0 mi SW 6.9 mph - N/A   Partly Cloudy
10:52 PM 44.1 °F 40.8 °F 27.0 °F 51% 30.03 in 10.0 mi WSW 5.8 mph - N/A   Mostly Cloudy
11:52 PM 39.9 °F - 30.0 °F 68% 30.03 in 10.0 mi Calm Calm - N/A   Scattered Clouds